Location: Ferintosh
(52.7647°N, 112.9692°W)
Time: 14:27:59
(UTC+00:00)

Transit 2A - Pass Details

Date: 21 May 2024
Orbit: 592 x 959 km, 66.7° (Epoch: 23 June)

Event Time Altitude Azimuth Distance (km) Brightness Sun altitude
Rises 10:31:30 0° 295° (WNW) 3,139 9.0 -6.9°
Reaches altitude 10° 10:34:28 10° 314° (NW) 2,290 8.5 -6.5°
Maximum altitude 10:38:11 19° 358° (N) 1,835 8.6 -6.2°
Drops below altitude 10° 10:42:08 10° 43° (NE) 2,468 10.5 -5.7°
Sets 10:45:30 0° 61° (ENE) 3,475 11.3 -5.4°
